Location: Banff
(51.1667°N, 115.5667°W)
Time: 12:39:54
(UTC+00:00)

Vanguard 1 Rocket - Pass Details

Date: 05 December 2020
Orbit: 655 x 4222 km, 34.3° (Epoch: 23 January)

Event Time Altitude Azimuth Distance (km) Brightness Sun altitude
Rises 12:13:22 0° 273° (W) 8,470 - -29.7°
Reaches altitude 10° 12:20:10 10° 266° (W) 7,336 - -28.6°
Exits shadow 12:31:28 28° 246° (WSW) 5,472 10.8 -26.8°
Maximum altitude 12:40:11 36° 212° (SSW) 4,406 10.6 -25.5°
Drops below altitude 10° 12:53:16 10° 152° (SSE) 4,835 11.5 -23.4°
Sets 12:56:40 0° 143° (SE) 5,414 12.0 -22.9°
